Flag for Canada Weather past 2 weeks in Corner Brook, Newfoundland and Labrador, Canada

46 °F


Feels Like: 42 °F
Forecast: 38 / 57 °F
Wind: 9 mph from Northeast

Location: Deer Lake

Current Time: Oct 7, 2015 at 1:11:15 AM

Latest Report: Oct 7, 2015 at 12:30 AM

Visibility: 15 mi

Pressure: 29.87 "Hg

Humidity: 87%

Dew point: 43 °F

Location of Corner BrookLocation

Historic Weather in Corner Brook — Graph


Corner Brook temperature yesterday

Maximum temperature yesterday: 64 °F (at 2:30 PM)
Minimum temperature yesterday: 45 °F (at 8:30 AM)
Average temperature yesterday: 53 °F

Past Weeks' High & Low Weather Summary

High72 °F (Sep 28, 3:30 PM)100% (Sep 22, 2:30 AM)30.51 "Hg (Sep 22, 2:30 AM)
Low27 °F (Sep 26, 11:30 PM)25% (Sep 22, 2:30 PM)29.84 "Hg (Sep 28, 3:30 PM)
Average51 °F79%30.15 "Hg
* Reported Sep 21 11:30 PM — Oct 6 11:30 PM, Corner Brook, Weather by CustomWeather, © 2015

Note: Actual official high and low records may vary slightly from our data, if they occured in-between our weather recording intervals... More about our weather records


Corner Brook weather history for previous 24 hours

Time TempWeatherWind HumidityBarometerVisibility
11:30 PM
Tue, Oct 6
46 °FPartly cloudy.8 mph93%29.89 "Hg15 mi
10:30 PM46 °FPassing clouds.10 mph93%29.89 "Hg15 mi
9:30 PM48 °FPassing clouds.8 mph87%29.88 "Hg15 mi
8:30 PM50 °FPassing clouds.8 mph82%29.88 "Hg15 mi
7:30 PM52 °FPassing clouds.No wind77%29.88 "Hg15 mi
6:30 PM57 °FScattered clouds.5 mph67%29.87 "Hg15 mi
5:30 PM63 °FScattered clouds.5 mph56%29.87 "Hg15 mi
4:30 PM64 °FScattered clouds.5 mph46%29.88 "Hg15 mi
3:30 PM64 °FScattered clouds.6 mph46%29.89 "Hg15 mi
2:30 PM64 °FScattered clouds.7 mph49%29.90 "Hg15 mi
1:30 PM63 °FScattered clouds.9 mph56%29.93 "Hg15 mi
12:30 PM61 °FScattered clouds.14 mph59%29.95 "Hg15 mi
11:30 AM59 °FBroken clouds.12 mph63%29.96 "Hg15 mi
10:30 AM55 °FBroken clouds.14 mph72%29.99 "Hg15 mi
9:30 AM50 °FPartly sunny.9 mph82%30.00 "Hg15 mi
8:30 AM45 °FPartly sunny.2 mph93%30.01 "Hg15 mi
7:30 AM48 °FPassing clouds.8 mph82%30.01 "Hg15 mi
6:30 AM48 °FPassing clouds.6 mph82%30.01 "Hg15 mi
5:30 AM48 °FOvercast.9 mph82%30.03 "Hg15 mi
4:30 AM48 °FPassing clouds.8 mph82%30.03 "Hg15 mi
3:30 AM48 °FPassing clouds.9 mph82%30.05 "Hg15 mi
2:30 AM48 °FPassing clouds.8 mph87%30.06 "Hg15 mi
1:30 AM50 °FPassing clouds.7 mph82%30.08 "Hg15 mi
Weather by CustomWeather, © 2015

See weather overviewHow to use our weather pages